Time,TemperatureF,DewpointF,PressureIn,WindDirection,WindDirectionDegrees,WindSpeedMPH,WindSpeedGustMPH,Humidity,HourlyPrecipIn,Conditions,Clouds,dailyrainin,SoftwareType,DateUTC
2013-04-13 00:04:00,31.8,18.3,17.73,WSW,250,4.0,5.0,22,-99.99,,,-99.99,meteohub,2013-04-13 06:04:00,
2013-04-13 00:09:00,31.8,18.3,17.73,West,274,3.0,4.0,22,-99.99,,,-99.99,meteohub,2013-04-13 06:09:00,
2013-04-13 00:15:00,32.0,18.3,17.73,West,274,0.0,4.0,22,-99.99,,,-99.99,meteohub,2013-04-13 06:15:00,
2013-04-13 00:22:00,32.7,18.3,17.73,SSW,199,0.0,4.0,22,-99.99,,,-99.99,meteohub,2013-04-13 06:22:00,
2013-04-13 00:27:00,32.2,18.1,17.73,SW,224,0.0,4.0,22,-99.99,,,-99.99,meteohub,2013-04-13 06:27:00,
2013-04-13 00:33:00,35.1,18.7,17.73,SE,143,5.0,5.0,22,-99.99,,,-99.99,meteohub,2013-04-13 06:33:00,
2013-04-13 00:38:00,35.1,18.5,17.73,WSW,241,2.0,6.0,22,-99.99,,,-99.99,meteohub,2013-04-13 06:38:00,
2013-04-13 00:43:00,36.7,18.3,17.73,SSE,149,6.0,8.0,22,-99.99,,,-99.99,meteohub,2013-04-13 06:43:00,
2013-04-13 00:49:00,37.6,18.3,17.73,SE,137,6.0,11.0,22,-99.99,,,-99.99,meteohub,2013-04-13 06:49:00,
2013-04-13 00:54:00,38.7,18.3,17.73,SE,138,6.0,11.0,22,-99.99,,,-99.99,meteohub,2013-04-13 06:54:00,
2013-04-13 01:00:00,38.7,18.1,17.73,ESE,112,9.0,13.0,22,-99.99,,,-99.99,meteohub,2013-04-13 07:00:00,
2013-04-13 01:05:00,38.5,18.1,17.73,ESE,111,11.0,13.0,22,-99.99,,,-99.99,meteohub,2013-04-13 07:05:00,
2013-04-13 01:10:00,38.5,18.7,17.73,ESE,121,9.0,13.0,22,-99.99,,,-99.99,meteohub,2013-04-13 07:10:00,
2013-04-13 01:15:00,38.5,18.9,17.73,SE,135,8.0,13.0,22,-99.99,,,-99.99,meteohub,2013-04-13 07:15:00,
2013-04-13 01:21:00,38.1,18.7,17.73,SE,146,8.0,11.0,22,-99.99,,,-99.99,meteohub,2013-04-13 07:21:00,
2013-04-13 01:27:00,38.1,18.5,17.73,ESE,110,8.0,11.0,22,-99.99,,,-99.99,meteohub,2013-04-13 07:27:00,
2013-04-13 01:32:00,38.5,18.3,17.73,SSE,152,8.0,10.0,22,-99.99,,,-99.99,meteohub,2013-04-13 07:32:00,
2013-04-13 01:37:00,38.7,18.3,17.73,SE,127,13.0,13.0,22,-99.99,,,-99.99,meteohub,2013-04-13 07:37:00,
2013-04-13 01:44:00,39.2,18.3,17.73,SE,130,15.0,15.0,22,-99.99,,,-99.99,meteohub,2013-04-13 07:44:00,
2013-04-13 01:49:00,39.2,18.9,17.73,SSE,155,11.0,15.0,22,-99.99,,,-99.99,meteohub,2013-04-13 07:49:00,
2013-04-13 01:57:00,38.8,18.7,17.73,SE,128,15.0,22.0,22,-99.99,,,-99.99,meteohub,2013-04-13 07:57:00,
2013-04-13 02:02:00,39.2,18.5,17.73,SE,144,10.0,15.0,22,-99.99,,,-99.99,meteohub,2013-04-13 08:02:00,
2013-04-13 02:07:00,38.8,18.3,17.73,SSE,151,10.0,15.0,22,-99.99,,,-99.99,meteohub,2013-04-13 08:07:00,
2013-04-13 02:15:00,38.5,18.3,17.73,SE,145,10.0,15.0,22,-99.99,,,-99.99,meteohub,2013-04-13 08:15:00,
2013-04-13 02:21:00,38.8,19.0,17.73,SE,144,13.0,13.0,22,-99.99,,,-99.99,meteohub,2013-04-13 08:21:00,
2013-04-13 02:27:00,38.7,18.9,17.73,SE,130,13.0,13.0,22,-99.99,,,-99.99,meteohub,2013-04-13 08:27:00,
2013-04-13 02:32:00,38.7,18.7,17.73,SSE,152,8.0,15.0,22,-99.99,,,-99.99,meteohub,2013-04-13 08:32:00,
2013-04-13 02:37:00,38.5,18.5,17.73,SE,144,11.0,15.0,22,-99.99,,,-99.99,meteohub,2013-04-13 08:37:00,
2013-04-13 02:42:00,38.5,18.3,17.73,SE,145,8.0,15.0,22,-99.99,,,-99.99,meteohub,2013-04-13 08:42:00,
2013-04-13 02:47:00,38.1,18.5,17.73,SE,142,11.0,15.0,22,-99.99,,,-99.99,meteohub,2013-04-13 08:47:00,
2013-04-13 02:52:00,37.9,19.0,17.73,SE,144,6.0,15.0,22,-99.99,,,-99.99,meteohub,2013-04-13 08:52:00,
2013-04-13 02:57:00,37.4,19.0,17.73,SE,144,7.0,15.0,22,-99.99,,,-99.99,meteohub,2013-04-13 08:57:00,
2013-04-13 03:04:00,37.6,18.9,17.73,SE,145,8.0,16.0,22,-99.99,,,-99.99,meteohub,2013-04-13 09:04:00,
2013-04-13 03:09:00,36.5,18.7,17.73,SSE,164,18.0,18.0,22,-99.99,,,-99.99,meteohub,2013-04-13 09:09:00,
2013-04-13 03:15:00,36.3,18.5,17.73,SSE,164,16.0,21.0,22,-99.99,,,-99.99,meteohub,2013-04-13 09:15:00,
2013-04-13 03:20:00,35.4,18.5,17.73,SE,137,10.0,21.0,22,-99.99,,,-99.99,meteohub,2013-04-13 09:20:00,
2013-04-13 03:25:00,34.2,19.2,17.73,SSE,151,8.0,21.0,22,-99.99,,,-99.99,meteohub,2013-04-13 09:25:00,
2013-04-13 03:30:00,33.3,19.2,17.73,SSE,160,8.0,18.0,22,-99.99,,,-99.99,meteohub,2013-04-13 09:30:00,
2013-04-13 03:36:00,33.3,19.2,17.73,SE,143,5.0,16.0,22,-99.99,,,-99.99,meteohub,2013-04-13 09:36:00,
2013-04-13 03:43:00,33.1,18.9,17.73,SE,132,5.0,11.0,22,-99.99,,,-99.99,meteohub,2013-04-13 09:43:00,
2013-04-13 03:50:00,33.1,18.7,17.73,ESE,121,2.0,9.0,22,-99.99,,,-99.99,meteohub,2013-04-13 09:50:00,
2013-04-13 03:57:00,33.1,18.5,17.73,ESE,121,0.0,6.0,22,-99.99,,,-99.99,meteohub,2013-04-13 09:57:00,
2013-04-13 04:02:00,33.1,18.5,17.73,ESE,121,0.0,6.0,22,-99.99,,,-99.99,meteohub,2013-04-13 10:02:00,
2013-04-13 04:08:00,33.3,18.3,17.73,West,259,0.0,0.0,22,-99.99,,,-99.99,meteohub,2013-04-13 10:08:00,
2013-04-13 04:13:00,33.3,18.7,17.73,West,261,0.0,0.0,22,-99.99,,,-99.99,meteohub,2013-04-13 10:13:00,
2013-04-13 04:18:00,33.1,19.0,17.73,NE,44,4.0,0.0,22,-99.99,,,-99.99,meteohub,2013-04-13 10:18:00,
2013-04-13 04:24:00,32.9,19.0,17.73,NNE,31,6.0,6.0,22,-99.99,,,-99.99,meteohub,2013-04-13 10:24:00,
2013-04-13 04:32:00,33.1,18.7,17.73,NNE,16,0.0,8.0,22,-99.99,,,-99.99,meteohub,2013-04-13 10:32:00,
2013-04-13 04:37:00,33.1,18.7,17.73,North,11,0.0,8.0,22,-99.99,,,-99.99,meteohub,2013-04-13 10:37:00,
2013-04-13 04:42:00,33.3,18.5,17.73,North,8,0.0,4.0,22,-99.99,,,-99.99,meteohub,2013-04-13 10:42:00,
2013-04-13 04:52:00,33.1,18.3,17.73,NNE,23,4.0,0.0,22,-99.99,,,-99.99,meteohub,2013-04-13 10:52:00,
2013-04-13 04:57:00,33.3,18.3,17.73,NNE,31,4.0,5.0,22,-99.99,,,-99.99,meteohub,2013-04-13 10:57:00,
2013-04-13 05:02:00,33.1,18.3,17.73,NE,53,2.0,5.0,22,-99.99,,,-99.99,meteohub,2013-04-13 11:02:00,
2013-04-13 05:08:00,33.3,20.7,17.73,NNE,24,0.0,6.0,24,-99.99,,,-99.99,meteohub,2013-04-13 11:08:00,
2013-04-13 05:13:00,33.3,21.0,17.73,ENE,63,0.0,6.0,24,-99.99,,,-99.99,meteohub,2013-04-13 11:13:00,
2013-04-13 05:22:00,33.3,18.7,17.73,East,99,0.0,4.0,22,-99.99,,,-99.99,meteohub,2013-04-13 11:22:00,
2013-04-13 05:27:00,33.3,18.5,17.73,East,99,0.0,4.0,22,-99.99,,,-99.99,meteohub,2013-04-13 11:27:00,
2013-04-13 05:34:00,33.3,18.5,17.73,East,99,0.0,4.0,22,-99.99,,,-99.99,meteohub,2013-04-13 11:34:00,
2013-04-13 05:42:00,33.4,18.3,17.73,SE,144,3.0,0.0,22,-99.99,,,-99.99,meteohub,2013-04-13 11:42:00,
2013-04-13 05:47:00,33.3,18.3,17.73,South,181,0.0,6.0,22,-99.99,,,-99.99,meteohub,2013-04-13 11:47:00,
2013-04-13 05:52:00,33.3,18.3,17.73,South,180,0.0,6.0,22,-99.99,,,-99.99,meteohub,2013-04-13 11:52:00,
2013-04-13 05:57:00,33.3,21.2,17.73,SSW,209,3.0,6.0,25,-99.99,,,-99.99,meteohub,2013-04-13 11:57:00,
2013-04-13 06:02:00,33.3,21.2,17.73,SSW,209,2.0,6.0,25,-99.99,,,-99.99,meteohub,2013-04-13 12:02:00,
2013-04-13 06:12:00,33.6,20.7,17.73,SSW,209,0.0,4.0,24,-99.99,,,-99.99,meteohub,2013-04-13 12:12:00,
2013-04-13 06:17:00,33.6,20.7,17.73,SSW,209,0.0,3.0,24,-99.99,,,-99.99,meteohub,2013-04-13 12:17:00,
2013-04-13 06:22:00,33.4,21.6,17.73,SSW,209,0.0,3.0,25,-99.99,,,-99.99,meteohub,2013-04-13 12:22:00,
2013-04-13 06:28:00,33.4,21.6,17.73,SSW,209,0.0,3.0,25,-99.99,,,-99.99,meteohub,2013-04-13 12:28:00,
2013-04-13 06:33:00,33.6,18.3,17.73,SW,219,0.0,0.0,22,-99.99,,,-99.99,meteohub,2013-04-13 12:33:00,
2013-04-13 06:39:00,33.6,21.2,17.73,SW,223,0.0,0.0,25,-99.99,,,-99.99,meteohub,2013-04-13 12:39:00,
2013-04-13 06:44:00,33.4,21.2,17.73,SW,223,0.0,0.0,25,-99.99,,,-99.99,meteohub,2013-04-13 12:44:00,
2013-04-13 06:49:00,33.4,21.0,17.73,WSW,242,0.0,0.0,25,-99.99,,,-99.99,meteohub,2013-04-13 12:49:00,
2013-04-13 06:57:00,33.6,20.7,17.73,WNW,285,3.0,0.0,24,-99.99,,,-99.99,meteohub,2013-04-13 12:57:00,
2013-04-13 07:02:00,33.8,20.7,17.73,West,266,3.0,0.0,24,-99.99,,,-99.99,meteohub,2013-04-13 13:02:00,
2013-04-13 07:07:00,33.8,21.6,17.73,WSW,256,0.0,4.0,25,-99.99,,,-99.99,meteohub,2013-04-13 13:07:00,
2013-04-13 07:13:00,33.8,21.6,17.73,West,259,3.0,4.0,25,-99.99,,,-99.99,meteohub,2013-04-13 13:13:00,
2013-04-13 07:20:00,34.0,21.4,17.73,West,259,0.0,5.0,25,-99.99,,,-99.99,meteohub,2013-04-13 13:20:00,
2013-04-13 07:26:00,34.0,21.2,17.73,WNW,284,0.0,5.0,25,-99.99,,,-99.99,meteohub,2013-04-13 13:26:00,
2013-04-13 07:31:00,34.0,21.2,17.73,West,272,3.0,5.0,25,-99.99,,,-99.99,meteohub,2013-04-13 13:31:00,
2013-04-13 07:37:00,34.0,21.0,17.73,NNE,25,0.0,5.0,25,-99.99,,,-99.99,meteohub,2013-04-13 13:37:00,
2013-04-13 07:47:00,34.2,20.7,17.73,NNW,346,0.0,4.0,24,-99.99,,,-99.99,meteohub,2013-04-13 13:47:00,
2013-04-13 07:53:00,34.0,21.6,17.73,NNE,20,4.0,0.0,25,-99.99,,,-99.99,meteohub,2013-04-13 13:53:00,
2013-04-13 07:58:00,34.3,21.4,17.73,SE,138,2.0,0.0,25,-99.99,,,-99.99,meteohub,2013-04-13 13:58:00,
2013-04-13 08:03:00,34.5,21.4,17.73,NNW,343,0.0,6.0,25,-99.99,,,-99.99,meteohub,2013-04-13 14:03:00,
2013-04-13 08:12:00,34.5,21.2,17.73,NNW,346,0.0,4.0,25,-99.99,,,-99.99,meteohub,2013-04-13 14:12:00,
2013-04-13 08:17:00,34.7,21.2,17.73,NNW,346,0.0,0.0,25,-99.99,,,-99.99,meteohub,2013-04-13 14:17:00,
2013-04-13 08:22:00,34.9,21.2,17.73,West,275,0.0,0.0,25,-99.99,,,-99.99,meteohub,2013-04-13 14:22:00,
2013-04-13 08:27:00,34.9,21.0,17.73,West,279,0.0,0.0,25,-99.99,,,-99.99,meteohub,2013-04-13 14:27:00,
2013-04-13 08:32:00,34.9,21.6,17.73,West,280,2.0,0.0,25,-99.99,,,-99.99,meteohub,2013-04-13 14:32:00,
2013-04-13 08:37:00,34.7,20.7,17.73,West,280,0.0,4.0,24,-99.99,,,-99.99,meteohub,2013-04-13 14:37:00,
2013-04-13 08:44:00,34.7,21.6,17.73,WNW,294,0.0,4.0,25,-99.99,,,-99.99,meteohub,2013-04-13 14:44:00,
2013-04-13 08:49:00,34.9,21.4,17.73,NNE,19,3.0,4.0,25,-99.99,,,-99.99,meteohub,2013-04-13 14:49:00,
2013-04-13 08:54:00,34.9,21.4,17.73,NW,313,4.0,4.0,25,-99.99,,,-99.99,meteohub,2013-04-13 14:54:00,
2013-04-13 09:00:00,34.9,21.2,17.73,NNE,23,2.0,4.0,25,-99.99,,,-99.99,meteohub,2013-04-13 15:00:00,
2013-04-13 09:05:00,34.9,21.2,17.73,SW,228,0.0,5.0,25,-99.99,,,-99.99,meteohub,2013-04-13 15:05:00,
2013-04-13 09:10:00,34.9,21.0,17.73,NNE,25,0.0,4.0,25,-99.99,,,-99.99,meteohub,2013-04-13 15:10:00,
2013-04-13 09:15:00,34.9,21.2,17.73,WNW,287,3.0,4.0,25,-99.99,,,-99.99,meteohub,2013-04-13 15:15:00,
2013-04-13 09:21:00,34.5,20.7,17.73,NW,316,3.0,5.0,24,-99.99,,,-99.99,meteohub,2013-04-13 15:21:00,
2013-04-13 09:27:00,34.9,20.7,17.73,NNE,22,4.0,5.0,24,-99.99,,,-99.99,meteohub,2013-04-13 15:27:00,
2013-04-13 09:32:00,35.1,21.6,17.73,NNE,18,0.0,5.0,25,-99.99,,,-99.99,meteohub,2013-04-13 15:32:00,
2013-04-13 09:37:00,35.4,21.4,17.73,NNE,17,0.0,5.0,25,-99.99,,,-99.99,meteohub,2013-04-13 15:37:00,
2013-04-13 09:45:00,35.6,21.4,17.73,NNE,18,4.0,4.0,25,-99.99,,,-99.99,meteohub,2013-04-13 15:45:00,
2013-04-13 09:50:00,35.6,21.2,17.73,NNE,12,0.0,5.0,25,-99.99,,,-99.99,meteohub,2013-04-13 15:50:00,
2013-04-13 09:55:00,36.1,21.0,17.73,North,0,0.0,5.0,25,-99.99,,,-99.99,meteohub,2013-04-13 15:55:00,
2013-04-13 10:01:00,36.7,21.0,17.73,North,353,0.0,4.0,25,-99.99,,,-99.99,meteohub,2013-04-13 16:01:00,
2013-04-13 10:07:00,37.0,21.6,17.73,NNW,342,0.0,0.0,25,-99.99,,,-99.99,meteohub,2013-04-13 16:07:00,
2013-04-13 10:12:00,37.2,20.7,17.73,NNE,23,0.0,0.0,24,-99.99,,,-99.99,meteohub,2013-04-13 16:12:00,
2013-04-13 10:17:00,37.4,20.7,17.73,NNE,18,6.0,6.0,24,-99.99,,,-99.99,meteohub,2013-04-13 16:17:00,
2013-04-13 10:22:00,37.2,20.7,17.73,North,5,5.0,6.0,24,-99.99,,,-99.99,meteohub,2013-04-13 16:22:00,
2013-04-13 10:30:00,37.4,21.6,17.73,NNE,16,3.0,6.0,25,-99.99,,,-99.99,meteohub,2013-04-13 16:30:00,
2013-04-13 10:37:00,38.1,21.4,17.73,NNE,29,0.0,5.0,25,-99.99,,,-99.99,meteohub,2013-04-13 16:37:00,
2013-04-13 10:42:00,38.7,21.2,17.73,NE,34,0.0,3.0,25,-99.99,,,-99.99,meteohub,2013-04-13 16:42:00,
2013-04-13 10:48:00,39.4,21.2,17.73,North,0,0.0,3.0,25,-99.99,,,-99.99,meteohub,2013-04-13 16:48:00,
2013-04-13 10:53:00,39.9,21.2,17.73,West,261,0.0,4.0,25,-99.99,,,-99.99,meteohub,2013-04-13 16:53:00,
2013-04-13 10:59:00,40.1,21.2,17.73,WSW,257,0.0,4.0,25,-99.99,,,-99.99,meteohub,2013-04-13 16:59:00,
2013-04-13 11:04:00,40.3,21.6,17.73,WNW,282,0.0,5.0,25,-99.99,,,-99.99,meteohub,2013-04-13 17:04:00,
2013-04-13 11:09:00,38.8,20.8,17.73,WNW,282,0.0,5.0,24,-99.99,,,-99.99,meteohub,2013-04-13 17:09:00,
2013-04-13 11:16:00,39.0,21.0,17.73,West,268,0.0,3.0,24,-99.99,,,-99.99,meteohub,2013-04-13 17:16:00,
2013-04-13 11:22:00,39.2,20.7,17.73,West,273,0.0,0.0,24,-99.99,,,-99.99,meteohub,2013-04-13 17:22:00,
2013-04-13 11:27:00,39.2,20.7,17.73,WNW,291,0.0,0.0,24,-99.99,,,-99.99,meteohub,2013-04-13 17:27:00,
2013-04-13 11:33:00,38.5,21.6,17.73,South,186,4.0,6.0,25,-99.99,,,-99.99,meteohub,2013-04-13 17:33:00,
2013-04-13 11:42:00,35.2,21.4,17.73,South,178,15.0,15.0,25,-99.99,,,-99.99,meteohub,2013-04-13 17:42:00,
2013-04-13 11:48:00,34.5,21.4,17.73,SSW,192,13.0,15.0,25,-99.99,,,-99.99,meteohub,2013-04-13 17:48:00,
2013-04-13 11:56:00,34.7,21.2,17.73,SSW,192,11.0,15.0,25,-99.99,,,-99.99,meteohub,2013-04-13 17:56:00,
2013-04-13 12:02:00,34.9,21.2,17.73,SSW,197,11.0,14.0,25,-99.99,,,-99.99,meteohub,2013-04-13 18:02:00,
2013-04-13 12:10:00,34.9,21.2,17.73,WSW,239,13.0,14.0,25,-99.99,,,-99.99,meteohub,2013-04-13 18:10:00,
2013-04-13 12:15:00,35.8,20.8,17.73,SSW,196,6.0,14.0,24,-99.99,,,-99.99,meteohub,2013-04-13 18:15:00,
2013-04-13 12:20:00,35.6,20.8,17.73,SSW,192,9.0,14.0,24,-99.99,,,-99.99,meteohub,2013-04-13 18:20:00,
2013-04-13 12:27:00,36.0,20.7,17.73,SSW,201,8.0,12.0,24,-99.99,,,-99.99,meteohub,2013-04-13 18:27:00,
2013-04-13 12:28:00,36.0,20.7,17.73,SSW,213,8.0,12.0,24,-99.99,,,-99.99,meteohub,2013-04-13 18:28:00,
2013-04-13 12:29:00,36.1,20.7,17.73,SW,229,8.0,12.0,24,-99.99,,,-99.99,meteohub,2013-04-13 18:29:00,
2013-04-13 12:34:00,36.5,21.6,17.73,SSW,202,6.0,12.0,25,-99.99,,,-99.99,meteohub,2013-04-13 18:34:00,
2013-04-13 12:39:00,35.6,21.4,17.73,SSW,208,9.0,10.0,25,-99.99,,,-99.99,meteohub,2013-04-13 18:39:00,
2013-04-13 12:45:00,35.8,21.4,17.73,SSW,209,8.0,10.0,25,-99.99,,,-99.99,meteohub,2013-04-13 18:45:00,
2013-04-13 12:50:00,35.8,21.2,17.73,SSW,198,8.0,11.0,25,-99.99,,,-99.99,meteohub,2013-04-13 18:50:00,
2013-04-13 12:55:00,36.1,21.2,17.73,SSW,197,6.0,11.0,25,-99.99,,,-99.99,meteohub,2013-04-13 18:55:00,
2013-04-13 13:00:00,34.9,21.2,17.73,South,184,7.0,11.0,25,-99.99,,,-99.99,meteohub,2013-04-13 19:00:00,
2013-04-13 13:05:00,35.1,21.2,17.73,SSW,200,5.0,11.0,25,-99.99,,,-99.99,meteohub,2013-04-13 19:05:00,
2013-04-13 13:10:00,34.9,21.6,17.73,South,187,4.0,8.0,25,-99.99,,,-99.99,meteohub,2013-04-13 19:10:00,
2013-04-13 13:15:00,35.8,21.0,17.73,WSW,240,2.0,8.0,24,-99.99,,,-99.99,meteohub,2013-04-13 19:15:00,
2013-04-13 13:20:00,37.6,21.0,17.73,West,260,3.0,6.0,24,-99.99,,,-99.99,meteohub,2013-04-13 19:20:00,
2013-04-13 13:25:00,37.8,20.8,17.73,SSW,207,11.0,11.0,24,-99.99,,,-99.99,meteohub,2013-04-13 19:25:00,
2013-04-13 13:31:00,37.6,20.7,17.73,SSW,212,12.0,15.0,24,-99.99,,,-99.99,meteohub,2013-04-13 19:31:00,
2013-04-13 13:36:00,36.3,20.7,17.73,SSW,193,15.0,15.0,24,-99.99,,,-99.99,meteohub,2013-04-13 19:36:00,
2013-04-13 13:41:00,35.4,21.6,17.73,South,178,10.0,15.0,25,-99.99,,,-99.99,meteohub,2013-04-13 19:41:00,
2013-04-13 13:47:00,35.6,21.4,17.73,South,171,4.0,15.0,25,-99.99,,,-99.99,meteohub,2013-04-13 19:47:00,
2013-04-13 13:52:00,36.7,21.4,17.73,South,184,6.0,15.0,25,-99.99,,,-99.99,meteohub,2013-04-13 19:52:00,
2013-04-13 13:57:00,38.1,21.4,17.73,South,174,5.0,15.0,25,-99.99,,,-99.99,meteohub,2013-04-13 19:57:00,
2013-04-13 14:02:00,38.7,21.4,17.73,SSE,147,4.0,7.0,25,-99.99,,,-99.99,meteohub,2013-04-13 20:02:00,
2013-04-13 14:07:00,39.0,21.4,17.73,SSE,158,3.0,7.0,25,-99.99,,,-99.99,meteohub,2013-04-13 20:07:00,
2013-04-13 14:12:00,38.7,21.4,17.73,SE,125,4.0,6.0,25,-99.99,,,-99.99,meteohub,2013-04-13 20:12:00,
2013-04-13 14:17:00,38.8,21.4,17.73,SE,126,4.0,5.0,25,-99.99,,,-99.99,meteohub,2013-04-13 20:17:00,
2013-04-13 14:22:00,39.4,21.4,17.73,SE,135,4.0,5.0,25,-99.99,,,-99.99,meteohub,2013-04-13 20:22:00,
2013-04-13 14:27:00,40.5,21.4,17.73,ESE,123,5.0,5.0,25,-99.99,,,-99.99,meteohub,2013-04-13 20:27:00,
2013-04-13 14:33:00,41.5,21.4,17.73,SE,126,3.0,6.0,25,-99.99,,,-99.99,meteohub,2013-04-13 20:33:00,
2013-04-13 14:38:00,41.9,21.4,17.73,SE,125,4.0,6.0,25,-99.99,,,-99.99,meteohub,2013-04-13 20:38:00,
2013-04-13 14:43:00,42.4,21.4,17.73,ESE,123,3.0,6.0,25,-99.99,,,-99.99,meteohub,2013-04-13 20:43:00,
2013-04-13 14:48:00,42.8,21.4,17.73,SE,130,4.0,6.0,25,-99.99,,,-99.99,meteohub,2013-04-13 20:48:00,
2013-04-13 14:53:00,42.3,21.4,17.73,West,264,3.0,6.0,25,-99.99,,,-99.99,meteohub,2013-04-13 20:53:00,
2013-04-13 14:58:00,43.0,21.4,17.73,WSW,256,0.0,6.0,25,-99.99,,,-99.99,meteohub,2013-04-13 20:58:00,
2013-04-13 15:04:00,43.5,21.4,17.73,West,265,0.0,6.0,25,-99.99,,,-99.99,meteohub,2013-04-13 21:04:00,
2013-04-13 15:09:00,43.7,21.4,17.73,West,267,4.0,6.0,25,-99.99,,,-99.99,meteohub,2013-04-13 21:09:00,
2013-04-13 15:14:00,45.0,21.4,17.73,WNW,285,3.0,5.0,25,-99.99,,,-99.99,meteohub,2013-04-13 21:14:00,
2013-04-13 15:19:00,45.9,21.4,17.73,WSW,248,3.0,5.0,25,-99.99,,,-99.99,meteohub,2013-04-13 21:19:00,
2013-04-13 15:25:00,44.4,21.4,17.73,West,281,3.0,5.0,25,-99.99,,,-99.99,meteohub,2013-04-13 21:25:00,
2013-04-13 15:30:00,43.2,21.4,17.73,NNE,25,3.0,6.0,25,-99.99,,,-99.99,meteohub,2013-04-13 21:30:00,
2013-04-13 15:35:00,42.6,21.2,17.73,NNE,30,4.0,6.0,25,-99.99,,,-99.99,meteohub,2013-04-13 21:35:00,
2013-04-13 15:40:00,42.6,20.7,17.73,NE,48,5.0,6.0,24,-99.99,,,-99.99,meteohub,2013-04-13 21:40:00,
2013-04-13 15:45:00,42.6,21.0,17.73,NE,44,4.0,6.0,24,-99.99,,,-99.99,meteohub,2013-04-13 21:45:00,
2013-04-13 15:51:00,43.7,20.8,17.73,ESE,119,0.0,8.0,24,-99.99,,,-99.99,meteohub,2013-04-13 21:51:00,
2013-04-13 15:56:00,45.0,20.8,17.73,North,4,4.0,8.0,24,-99.99,,,-99.99,meteohub,2013-04-13 21:56:00,
2013-04-13 16:02:00,46.2,20.8,17.73,West,273,8.0,8.0,24,-99.99,,,-99.99,meteohub,2013-04-13 22:02:00,
2013-04-13 16:07:00,47.8,20.8,17.73,West,264,8.0,9.0,24,-99.99,,,-99.99,meteohub,2013-04-13 22:07:00,
2013-04-13 16:12:00,50.2,20.8,17.73,SW,235,8.0,9.0,24,-99.99,,,-99.99,meteohub,2013-04-13 22:12:00,
2013-04-13 16:17:00,50.4,20.7,17.73,West,274,13.0,13.0,24,-99.99,,,-99.99,meteohub,2013-04-13 22:17:00,
2013-04-13 16:22:00,49.5,20.7,17.73,SW,230,13.0,15.0,24,-99.99,,,-99.99,meteohub,2013-04-13 22:22:00,
2013-04-13 16:28:00,49.1,20.7,17.73,SSW,203,11.0,15.0,24,-99.99,,,-99.99,meteohub,2013-04-13 22:28:00,
2013-04-13 16:33:00,48.7,20.7,17.73,West,267,13.0,15.0,24,-99.99,,,-99.99,meteohub,2013-04-13 22:33:00,
2013-04-13 16:38:00,48.0,20.7,17.73,West,266,15.0,17.0,24,-99.99,,,-99.99,meteohub,2013-04-13 22:38:00,
2013-04-13 16:43:00,46.9,20.7,17.73,WNW,284,17.0,19.0,24,-99.99,,,-99.99,meteohub,2013-04-13 22:43:00,
2013-04-13 16:48:00,46.2,21.6,17.73,WSW,255,13.0,22.0,25,-99.99,,,-99.99,meteohub,2013-04-13 22:48:00,
2013-04-13 16:53:00,45.7,21.6,17.73,WSW,250,15.0,22.0,25,-99.99,,,-99.99,meteohub,2013-04-13 22:53:00,
2013-04-13 16:58:00,44.2,21.6,17.73,West,259,22.0,24.0,25,-99.99,,,-99.99,meteohub,2013-04-13 22:58:00,
2013-04-13 17:03:00,43.5,21.0,17.73,WSW,257,16.0,24.0,24,-99.99,,,-99.99,meteohub,2013-04-13 23:03:00,
2013-04-13 17:09:00,43.2,21.2,17.73,WSW,254,13.0,24.0,24,-99.99,,,-99.99,meteohub,2013-04-13 23:09:00,
2013-04-13 17:14:00,42.6,21.0,17.73,West,272,20.0,26.0,24,-99.99,,,-99.99,meteohub,2013-04-13 23:14:00,
2013-04-13 17:19:00,40.8,20.8,17.73,WSW,245,25.0,31.0,24,-99.99,,,-99.99,meteohub,2013-04-13 23:19:00,
2013-04-13 17:24:00,40.1,20.7,17.73,West,269,22.0,31.0,24,-99.99,,,-99.99,meteohub,2013-04-13 23:24:00,
2013-04-13 17:29:00,39.9,21.0,17.73,WSW,252,15.0,31.0,24,-99.99,,,-99.99,meteohub,2013-04-13 23:29:00,
2013-04-13 17:35:00,38.8,21.4,17.73,West,263,24.0,29.0,24,-99.99,,,-99.99,meteohub,2013-04-13 23:35:00,
2013-04-13 17:40:00,38.7,21.0,17.73,WSW,248,18.0,27.0,24,-99.99,,,-99.99,meteohub,2013-04-13 23:40:00,
2013-04-13 17:45:00,38.1,20.8,17.73,WNW,290,24.0,27.0,24,-99.99,,,-99.99,meteohub,2013-04-13 23:45:00,
2013-04-13 17:51:00,37.9,21.4,17.73,West,268,18.0,27.0,24,-99.99,,,-99.99,meteohub,2013-04-13 23:51:00,
2013-04-13 17:56:00,37.8,21.7,17.73,West,276,15.0,28.0,24,-99.99,,,-99.99,meteohub,2013-04-13 23:56:00,
2013-04-13 18:02:00,37.6,19.6,17.73,WSW,254,17.0,26.0,22,-99.99,,,-99.99,meteohub,2013-04-14 00:02:00,
2013-04-13 18:07:00,37.6,19.2,17.73,West,264,20.0,28.0,22,-99.99,,,-99.99,meteohub,2013-04-14 00:07:00,
2013-04-13 18:12:00,37.0,19.2,17.73,WNW,293,15.0,29.0,22,-99.99,,,-99.99,meteohub,2013-04-14 00:12:00,
2013-04-13 18:17:00,36.9,20.1,17.73,West,277,17.0,29.0,22,-99.99,,,-99.99,meteohub,2013-04-14 00:17:00,
2013-04-13 18:22:00,36.0,20.1,17.73,WNW,299,20.0,29.0,22,-99.99,,,-99.99,meteohub,2013-04-14 00:22:00,
2013-04-13 18:27:00,35.8,19.6,17.73,WNW,286,18.0,28.0,22,-99.99,,,-99.99,meteohub,2013-04-14 00:27:00,
2013-04-13 18:32:00,35.4,19.4,17.73,WNW,283,17.0,28.0,22,-99.99,,,-99.99,meteohub,2013-04-14 00:32:00,
2013-04-13 18:37:00,35.1,20.1,17.73,WSW,255,12.0,28.0,22,-99.99,,,-99.99,meteohub,2013-04-14 00:37:00,
2013-04-13 18:43:00,35.1,20.3,17.73,NW,315,15.0,28.0,22,-99.99,,,-99.99,meteohub,2013-04-14 00:43:00,
2013-04-13 18:48:00,35.2,20.1,17.73,West,276,10.0,26.0,22,-99.99,,,-99.99,meteohub,2013-04-14 00:48:00,
2013-04-13 18:53:00,34.9,19.8,17.73,West,275,13.0,20.0,22,-99.99,,,-99.99,meteohub,2013-04-14 00:53:00,
2013-04-13 18:58:00,35.1,19.6,17.73,West,280,11.0,18.0,22,-99.99,,,-99.99,meteohub,2013-04-14 00:58:00,
2013-04-13 19:04:00,34.5,20.1,17.73,WNW,294,11.0,18.0,22,-99.99,,,-99.99,meteohub,2013-04-14 01:04:00,
2013-04-13 19:09:00,33.6,20.5,17.73,West,276,13.0,18.0,22,-99.99,,,-99.99,meteohub,2013-04-14 01:09:00,
2013-04-13 19:14:00,32.7,20.1,17.73,West,263,20.0,20.0,22,-99.99,,,-99.99,meteohub,2013-04-14 01:14:00,
2013-04-13 19:19:00,32.4,19.9,17.73,West,271,15.0,23.0,22,-99.99,,,-99.99,meteohub,2013-04-14 01:19:00,
2013-04-13 19:24:00,32.2,19.6,17.73,WSW,249,6.0,23.0,22,-99.99,,,-99.99,meteohub,2013-04-14 01:24:00,
2013-04-13 19:29:00,32.0,19.8,17.73,NE,39,12.0,20.0,22,-99.99,,,-99.99,meteohub,2013-04-14 01:29:00,
2013-04-13 19:34:00,31.5,20.3,17.73,West,275,17.0,17.0,22,-99.99,,,-99.99,meteohub,2013-04-14 01:34:00,
2013-04-13 19:40:00,31.1,20.1,17.73,North,5,13.0,18.0,22,-99.99,,,-99.99,meteohub,2013-04-14 01:40:00,
2013-04-13 19:45:00,30.7,19.9,17.73,WNW,285,12.0,18.0,22,-99.99,,,-99.99,meteohub,2013-04-14 01:45:00,
2013-04-13 19:50:00,30.7,19.6,17.73,WNW,289,8.0,18.0,22,-99.99,,,-99.99,meteohub,2013-04-14 01:50:00,
2013-04-13 19:55:00,30.6,19.6,17.73,WSW,237,3.0,18.0,22,-99.99,,,-99.99,meteohub,2013-04-14 01:55:00,
2013-04-13 20:00:00,30.4,20.1,17.73,SW,232,3.0,15.0,22,-99.99,,,-99.99,meteohub,2013-04-14 02:00:00,
2013-04-13 20:05:00,30.4,20.3,17.73,WSW,250,11.0,15.0,22,-99.99,,,-99.99,meteohub,2013-04-14 02:05:00,
2013-04-13 20:11:00,30.0,20.1,17.73,WSW,244,8.0,19.0,22,-99.99,,,-99.99,meteohub,2013-04-14 02:11:00,
2013-04-13 20:16:00,30.0,19.9,17.73,West,268,8.0,19.0,22,-99.99,,,-99.99,meteohub,2013-04-14 02:16:00,
2013-04-13 20:21:00,29.8,19.8,17.73,NNE,32,5.0,15.0,22,-99.99,,,-99.99,meteohub,2013-04-14 02:21:00,
2013-04-13 20:27:00,29.5,19.6,17.73,West,280,7.0,15.0,22,-99.99,,,-99.99,meteohub,2013-04-14 02:27:00,
2013-04-13 20:32:00,29.3,19.4,17.73,NW,321,3.0,15.0,22,-99.99,,,-99.99,meteohub,2013-04-14 02:32:00,
2013-04-13 20:37:00,28.9,19.2,17.73,West,277,15.0,15.0,22,-99.99,,,-99.99,meteohub,2013-04-14 02:37:00,
2013-04-13 20:42:00,28.6,19.2,17.73,West,278,6.0,20.0,22,-99.99,,,-99.99,meteohub,2013-04-14 02:42:00,
2013-04-13 20:47:00,28.4,19.2,17.73,West,268,7.0,20.0,22,-99.99,,,-99.99,meteohub,2013-04-14 02:47:00,
2013-04-13 20:52:00,28.2,19.8,17.73,WSW,240,7.0,20.0,22,-99.99,,,-99.99,meteohub,2013-04-14 02:52:00,
2013-04-13 20:57:00,28.0,19.9,17.73,WNW,289,8.0,20.0,22,-99.99,,,-99.99,meteohub,2013-04-14 02:57:00,
2013-04-13 21:02:00,27.9,19.8,17.73,East,87,3.0,15.0,22,-99.99,,,-99.99,meteohub,2013-04-14 03:02:00,
2013-04-13 21:07:00,27.9,19.6,17.73,West,276,8.0,15.0,22,-99.99,,,-99.99,meteohub,2013-04-14 03:07:00,
2013-04-13 21:12:00,27.9,19.4,17.73,West,275,3.0,15.0,22,-99.99,,,-99.99,meteohub,2013-04-14 03:12:00,
2013-04-13 21:17:00,27.5,19.2,17.73,WSW,246,13.0,15.0,22,-99.99,,,-99.99,meteohub,2013-04-14 03:17:00,
2013-04-13 21:22:00,27.7,19.2,17.73,WNW,290,8.0,15.0,22,-99.99,,,-99.99,meteohub,2013-04-14 03:22:00,
2013-04-13 21:27:00,27.5,19.2,17.73,West,274,4.0,15.0,22,-99.99,,,-99.99,meteohub,2013-04-14 03:27:00,
2013-04-13 21:33:00,27.3,19.0,17.73,NW,320,3.0,15.0,22,-99.99,,,-99.99,meteohub,2013-04-14 03:33:00,
2013-04-13 21:38:00,27.1,19.0,17.73,West,275,4.0,11.0,22,-99.99,,,-99.99,meteohub,2013-04-14 03:38:00,
2013-04-13 21:43:00,26.6,18.9,17.73,South,178,13.0,13.0,22,-99.99,,,-99.99,meteohub,2013-04-14 03:43:00,
2013-04-13 21:49:00,26.6,18.9,17.73,SE,134,4.0,13.0,22,-99.99,,,-99.99,meteohub,2013-04-14 03:49:00,
2013-04-13 21:54:00,26.1,19.0,17.73,SW,236,5.0,13.0,22,-99.99,,,-99.99,meteohub,2013-04-14 03:54:00,
2013-04-13 21:59:00,26.2,19.4,17.73,West,263,0.0,13.0,22,-99.99,,,-99.99,meteohub,2013-04-14 03:59:00,
2013-04-13 22:00:00,26.2,19.4,17.73,West,263,0.0,13.0,22,-99.99,,,-99.99,meteohub,2013-04-14 04:00:00,
2013-04-13 22:01:00,26.1,19.4,17.73,West,263,0.0,8.0,22,-99.99,,,-99.99,meteohub,2013-04-14 04:01:00,
2013-04-13 22:02:00,26.1,19.4,17.73,West,263,0.0,8.0,22,-99.99,,,-99.99,meteohub,2013-04-14 04:02:00,
2013-04-13 22:04:00,25.7,19.4,17.73,SSW,206,5.0,8.0,22,-99.99,,,-99.99,meteohub,2013-04-14 04:04:00,
2013-04-13 22:09:00,26.1,19.2,17.73,SW,231,5.0,7.0,22,-99.99,,,-99.99,meteohub,2013-04-14 04:09:00,
2013-04-13 22:15:00,26.1,19.2,17.73,South,179,3.0,10.0,22,-99.99,,,-99.99,meteohub,2013-04-14 04:15:00,
2013-04-13 22:20:00,26.1,19.2,17.73,WSW,251,5.0,10.0,22,-99.99,,,-99.99,meteohub,2013-04-14 04:20:00,
2013-04-13 22:25:00,26.1,19.0,17.73,SSW,210,4.0,10.0,22,-99.99,,,-99.99,meteohub,2013-04-14 04:25:00,
2013-04-13 22:30:00,25.5,19.0,17.73,South,178,9.0,9.0,22,-99.99,,,-99.99,meteohub,2013-04-14 04:30:00,
2013-04-13 22:35:00,25.3,18.9,17.73,South,183,4.0,8.0,22,-99.99,,,-99.99,meteohub,2013-04-14 04:35:00,
2013-04-13 22:40:00,25.0,18.7,17.73,SSW,208,8.0,11.0,22,-99.99,,,-99.99,meteohub,2013-04-14 04:40:00,
2013-04-13 22:45:00,25.3,18.7,17.73,South,186,7.0,12.0,22,-99.99,,,-99.99,meteohub,2013-04-14 04:45:00,
2013-04-13 22:50:00,24.8,18.7,17.73,SSW,206,8.0,12.0,22,-99.99,,,-99.99,meteohub,2013-04-14 04:50:00,
2013-04-13 22:56:00,24.6,18.7,17.73,SW,234,8.0,13.0,22,-99.99,,,-99.99,meteohub,2013-04-14 04:56:00,
2013-04-13 23:01:00,24.8,18.5,17.73,SW,227,8.0,13.0,22,-99.99,,,-99.99,meteohub,2013-04-14 05:01:00,
2013-04-13 23:06:00,25.0,18.5,17.73,West,274,9.0,11.0,22,-99.99,,,-99.99,meteohub,2013-04-14 05:06:00,
2013-04-13 23:12:00,25.2,18.3,17.73,SW,221,13.0,13.0,22,-99.99,,,-99.99,meteohub,2013-04-14 05:12:00,
2013-04-13 23:17:00,25.3,18.3,17.73,WNW,286,6.0,14.0,22,-99.99,,,-99.99,meteohub,2013-04-14 05:17:00,
2013-04-13 23:22:00,25.3,18.3,17.73,SW,231,9.0,14.0,22,-99.99,,,-99.99,meteohub,2013-04-14 05:22:00,
2013-04-13 23:27:00,25.3,18.7,17.73,WNW,283,4.0,14.0,22,-99.99,,,-99.99,meteohub,2013-04-14 05:27:00,
2013-04-13 23:32:00,25.3,18.9,17.73,WSW,240,5.0,14.0,22,-99.99,,,-99.99,meteohub,2013-04-14 05:32:00,
2013-04-13 23:37:00,25.2,18.7,17.73,SSW,194,14.0,14.0,22,-99.99,,,-99.99,meteohub,2013-04-14 05:37:00,
2013-04-13 23:42:00,24.4,18.5,17.73,SW,219,13.0,14.0,22,-99.99,,,-99.99,meteohub,2013-04-14 05:42:00,
2013-04-13 23:47:00,24.6,18.5,17.73,SW,223,12.0,15.0,22,-99.99,,,-99.99,meteohub,2013-04-14 05:47:00,
2013-04-13 23:53:00,24.6,18.3,17.73,SW,234,10.0,17.0,22,-99.99,,,-99.99,meteohub,2013-04-14 05:53:00,
2013-04-13 23:58:00,24.6,18.3,17.73,SW,232,7.0,17.0,22,-99.99,,,-99.99,meteohub,2013-04-14 05:58:00,